Wind_Speed
4 4 5 6 7 7 7 7 8 8 8 8 9 10 9 9 9 10 11 11 11 11 12 12 12 12 13 13 13 13 14 12 11 12 12 12 12 11 11 11 12 12 12
5 6 6 6 6 7 7 7 7 8 8 9 9 9 9 10 10 10 11 11 11 11 12 12 12 12 13 13 13 14 15 15 13 12 12 13 13 12 12 11 12 13 12
6 6 6 6 6 7 7 7 7 7 9 9 9 9 9 10 11 11 10 10 11 11 11 11 11 12 13 13 13 13 14 14 13 12 12 12 12 13 13 12 12 12 12
7 7 7 7 7 7 7 7 7 7 8 9 9 8 9 9 10 10 10 11 11 11 11 11 11 12 12 12 12 12 12 12 13 13 13 13 13 13 12 12 12 12 12
8 9 9 8 9 9 8 8 8 9 9 10 10 10 10 10 10 10 11 11 11 11 11 11 11 12 12 12 12 12 12 12 11 12 12 12 12 13 13 13 13 13 13
9 9 9 9 9 9 9 9 9 10 10 10 10 11 11 11 11 11 11 11 11 11 11 11 11 11 11 11 11 11 11 11 11 11 11 11 12 12 13 13 13 13 13
9 9 9 9 9 9 10 10 10 11 11 11 11 12 12 11 11 11 11 11 11 11 11 11 11 11 11 11 11 11 11 11 11 11 11 11 12 12 13 12 13 14 13
9 9 9 9 9 10 10 11 11 12 12 12 11 11 11 11 11 11 12 13 12 12 12 12 12 12 12 11 12 11 11 11 11 11 12 12 12 12 13 13 13 14 14
10 10 10 10 10 10 11 11 11 11 11 11 11 12 11 11 11 12 12 12 13 13 13 13 13 13 14 13 13 12 12 11 11 11 12 12 12 12 13 13 13 13 14
11 11 11 11 11 11 11 12 11 12 12 12 12 12 13 13 13 13 13 13 14 14 14 14 15 15 15 15 14 14 14 13 13 12 12 13 13 13 13 13 14 15 15
13 12 12 12 12 12 12 12 12 12 12 13 13 13 14 14 14 14 15 15 15 15 16 16 16 16 16 16 16 15 15 15 14 14 14 14 13 13 14 14 15 16 16
14 14 13 13 13 13 12 13 13 13 14 14 14 14 14 14 14 15 15 16 16 17 17 17 18 17 17 17 17 17 16 16 16 15 15 15 14 15 15 15 16 16 17
14 14 14 13 13 13 13 14 15 15 15 15 15 15 15 15 16 16 16 17 17 17 18 18 19 18 18 19 19 18 17 17 17 17 17 17 16 17 17 17 17 18 18
13 13 13 13 13 14 14 14 15 16 16 17 17 16 16 16 16 16 17 18 18 19 20 20 20 20 20 20 20 19 19 19 19 19 19 18 18 18 18 19 19 20 19
13 13 14 13 14 15 15 16 16 16 17 17 18 17 17 18 18 19 19 20 19 20 21 21 21 21 20 21 21 21 21 20 20 19 19 20 20 20 20 21 21 21 20
15 14 14 14 15 15 16 17 17 18 18 18 18 18 19 19 20 21 21 20 20 20 19 20 21 22 22 22 22 22 22 22 21 21 21 21 21 22 22 23 23 22 21
16 15 16 16 17 17 17 18 18 18 19 19 19 20 20 20 20 20 21 21 22 22 21 21 21 21 22 22 22 22 22 22 22 22 22 22 22 22 23 23 23 23 22
18 18 19 19 19 19 19 20 20 20 20 20 21 21 21 22 22 22 22 22 23 22 22 21 21 21 22 22 22 22 22 22 22 22 22 22 22 23 24 23 23 23 23
20 21 21 21 21 21 21 22 22 22 22 22 22 22 22 22 23 23 23 23 23 23 23 23 23 23 24 24 24 24 24 23 24 24 23 23 23 23 23 22 22 22 22
22 22 22 22 23 23 23 23 23 23 23 23 23 24 24 24 25 24 24 23 23 23 23 24 24 24 25 25 25 25 25 25 25 25 25 25 24 23 23 23 23 23 23
22 23 23 24 23 24 24 24 24 25 24 24 24 25 25 26 26 25 25 24 24 24 24 24 24 24 25 25 25 26 26 26 26 26 27 26 25 25 25 25 25 25 25
24 24 25 25 24 24 24 25 25 25 25 25 25 25 26 26 26 26 26 26 26 25 25 25 25 26 26 26 26 26 26 26 26 27 27 26 27 27 27 26 26 26 26
25 25 25 25 25 25 25 25 26 26 26 27 27 27 27 27 27 27 27 27 26 26 26 26 26 26 27 27 26 26 27 28 28 28 28 27 27 27 28 27 27 28 28
25 26 25 24 25 25 25 25 26 27 28 28 28 27 27 28 28 28 28 27 27 27 27 27 27 26 27 28 27 28 28 29 29 28 28 28 28 28 29 29 28 29 29
27 27 26 26 26 26 26 27 27 27 28 28 28 28 29 29 29 29 29 28 28 28 28 28 28 27 28 28 28 28 28 29 29 29 29 29 29 29 29 30 30 30 31
28 27 27 27 27 27 27 28 29 29 29 30 30 30 30 29 29 29 29 28 28 28 29 29 29 29 29 29 29 29 30 29 29 29 29 29 30 30 31 31 32 32 33
Wind_Direction
269 268 268 261 260 263 263 263 261 262 266 268 265 261 262 262 262 262 262 265 261 261 263 267 267 267 269 269 268 268 263 269 263 255 255 256 257 254 253 257 253 250 252
278 274 273 271 265 265 266 264 271 268 267 271 273 266 263 265 259 262 263 263 261 261 261 266 267 266 266 268 266 264 262 262 264 263 256 254 255 256 255 258 255 252 256
281 280 278 275 273 271 267 269 269 271 267 272 275 268 266 265 262 265 265 263 263 265 263 265 269 266 264 268 267 266 264 262 262 261 256 255 257 256 259 259 259 258 259
280 281 285 287 281 277 274 270 268 272 271 270 271 270 267 264 263 268 268 268 267 268 269 268 271 269 267 268 271 270 267 265 266 265 264 261 262 262 260 258 260 260 258
282 285 288 290 286 282 278 272 269 269 270 269 269 269 269 268 264 263 263 265 266 267 268 269 270 273 272 269 269 267 267 267 267 266 264 262 262 263 259 257 258 258 258
286 288 288 289 287 281 277 274 271 273 273 271 272 269 270 269 267 263 259 259 261 264 266 267 269 274 272 266 264 263 265 267 263 263 263 264 264 264 260 258 257 257 258
290 290 291 290 288 282 280 277 276 277 277 277 276 273 271 271 274 270 266 265 264 266 267 267 267 269 269 267 262 260 260 265 265 263 265 265 266 267 264 261 259 259 259
292 290 291 290 290 286 281 281 280 278 278 278 278 278 275 272 274 275 271 268 266 265 265 266 266 268 270 270 267 265 263 263 266 268 267 266 268 270 268 264 262 262 261
293 287 285 284 286 286 283 283 282 279 283 282 281 282 279 276 273 274 273 272 266 264 262 264 266 267 268 269 267 267 266 265 268 271 269 265 267 271 269 268 268 268 268
292 284 285 284 284 285 285 285 284 283 283 282 282 283 282 281 275 273 271 270 268 264 262 262 264 265 266 266 266 267 268 266 268 271 270 267 268 269 271 270 268 269 270
290 284 283 284 284 285 284 284 284 284 285 284 283 284 286 282 274 272 271 269 267 264 262 261 262 264 265 266 265 266 267 264 265 267 268 270 271 271 270 271 273 271 271
291 286 280 281 282 282 281 282 283 284 286 286 287 288 288 285 279 275 271 270 268 266 264 264 263 263 264 265 266 266 265 263 264 266 267 269 270 271 272 274 274 273 272
294 288 281 278 280 280 279 280 281 282 284 284 286 288 289 287 281 277 276 273 270 267 264 264 264 264 264 264 264 264 265 264 264 265 266 267 268 270 273 273 272 273 273
296 296 290 284 281 279 278 279 282 282 284 283 284 285 287 287 283 280 279 278 274 270 266 265 265 266 265 263 262 264 266 265 264 265 266 267 268 268 271 273 275 275 276
296 294 290 290 291 285 280 278 281 282 286 285 284 285 286 286 283 284 282 279 277 273 270 266 266 265 264 263 263 264 265 265 266 266 266 267 267 268 270 271 273 275 279
294 294 290 288 293 292 289 285 284 283 284 284 284 284 284 284 282 283 283 281 278 277 273 269 268 267 266 263 264 264 265 265 266 266 267 269 269 268 268 269 272 275 277
295 294 293 291 291 290 289 288 288 289 288 285 283 284 284 284 283 282 282 281 280 277 274 270 268 267 266 265 265 265 264 264 265 267 268 269 270 268 269 270 273 275 275
292 291 290 290 289 288 289 287 284 284 286 286 285 285 285 285 283 283 284 281 279 277 274 271 268 265 264 263 263 263 264 265 266 268 268 269 269 268 270 270 272 274 275
288 288 288 287 287 286 286 286 283 283 283 283 283 284 285 286 286 285 286 282 280 280 276 271 267 264 262 262 262 264 266 266 267 269 268 268 268 269 269 270 272 273 273
288 287 288 287 287 286 285 285 283 283 284 284 284 284 283 284 286 284 284 283 281 280 276 272 271 267 264 263 263 263 263 264 265 267 268 268 268 268 269 270 271 272 273
289 288 288 288 287 286 285 283 283 284 284 284 284 284 283 284 285 284 284 282 281 280 278 275 273 271 268 265 265 263 262 263 265 266 267 267 268 268 268 269 270 272 272
289 290 289 287 286 286 285 284 283 283 284 284 283 283 282 283 285 284 284 282 280 278 276 274 272 271 270 268 267 265 263 263 264 266 266 267 268 268 269 269 269 271 273
289 290 291 289 287 286 285 284 283 282 282 283 283 282 281 282 284 284 284 281 280 277 275 275 274 274 272 268 267 268 267 265 265 267 267 267 268 268 269 269 269 271 273
291 290 291 290 288 287 287 286 283 283 283 282 282 282 282 282 283 284 282 280 278 277 276 276 275 274 272 268 266 267 269 269 267 267 267 268 268 268 269 269 269 270 272
293 292 292 291 289 288 288 287 286 286 285 284 284 282 282 281 281 281 281 279 276 276 277 276 274 273 273 271 268 269 270 271 271 269 268 268 268 268 268 269 269 271 271
293 293 293 293 292 290 290 290 290 288 288 286 285 284 283 282 280 280 280 280 277 275 275 275 274 273 272 269 267 268 269 271 272 271 268 268 269 269 268 269 269 270 271
Height
5883 5883 5882 5882 5881 5881 5880 5880 5880 5879 5879 5879 5878 5878 5878 5877 5877 5877 5877 5876 5876 5876 5877 5876 5876 5876 5876 5877 5877 5877 5877 5877 5877 5877 5877 5877 5878 5878 5879 5879 5880 5881 5881
5882 5882 5881 5880 5880 5879 5879 5879 5878 5878 5877 5877 5877 5876 5876 5875 5875 5875 5874 5874 5874 5874 5874 5874 5874 5874 5874 5874 5874 5874 5874 5874 5874 5874 5874 5874 5875 5875 5876 5877 5877 5878 5879
5881 5880 5880 5879 5878 5878 5878 5877 5876 5876 5875 5875 5875 5874 5874 5873 5873 5873 5872 5872 5872 5872 5872 5872 5872 5872 5872 5872 5871 5871 5871 5871 5871 5871 5872 5872 5872 5873 5874 5875 5875 5875 5876
5880 5879 5878 5878 5877 5876 5876 5875 5875 5874 5874 5873 5873 5872 5872 5871 5871 5871 5870 5870 5870 5869 5869 5869 5869 5869 5869 5869 5869 5868 5868 5868 5868 5869 5869 5869 5870 5870 5871 5871 5872 5873 5873
5878 5877 5877 5876 5875 5875 5874 5873 5873 5872 5872 5871 5871 5870 5870 5869 5869 5869 5868 5868 5868 5867 5867 5867 5867 5867 5866 5866 5866 5866 5865 5865 5866 5866 5866 5867 5867 5868 5868 5868 5869 5869 5870
5876 5875 5875 5874 5873 5872 5872 5871 5871 5870 5870 5869 5869 5868 5868 5867 5866 5866 5866 5866 5865 5865 5865 5864 5864 5864 5864 5864 5864 5864 5863 5863 5863 5864 5864 5864 5865 5865 5865 5866 5866 5867 5867
5874 5873 5872 5871 5870 5870 5869 5869 5868 5868 5868 5867 5866 5866 5865 5864 5864 5863 5863 5863 5863 5863 5862 5862 5862 5862 5861 5861 5861 5861 5861 5861 5861 5861 5861 5862 5862 5862 5862 5863 5863 5864 5864
5872 5870 5870 5869 5868 5867 5867 5866 5866 5865 5865 5864 5864 5863 5863 5863 5861 5861 5860 5860 5860 5860 5860 5859 5859 5859 5858 5858 5858 5858 5858 5858 5858 5858 5859 5859 5859 5859 5860 5860 5860 5861 5861
5869 5868 5867 5866 5866 5865 5864 5864 5863 5863 5862 5862 5861 5861 5860 5860 5859 5858 5857 5857 5856 5856 5856 5856 5856 5856 5856 5855 5855 5856 5856 5856 5856 5856 5856 5856 5857 5857 5857 5857 5857 5858 5858
5867 5866 5865 5864 5863 5862 5861 5861 5860 5860 5860 5859 5858 5858 5857 5856 5856 5855 5854 5853 5853 5853 5853 5853 5853 5853 5853 5852 5852 5853 5853 5853 5853 5853 5853 5853 5854 5854 5854 5854 5854 5854 5854
5864 5863 5862 5861 5860 5860 5859 5858 5857 5857 5856 5856 5855 5854 5854 5852 5852 5851 5851 5851 5850 5850 5849 5849 5849 5849 5849 5849 5849 5849 5850 5850 5850 5850 5850 5850 5851 5851 5851 5851 5851 5851 5851
5861 5859 5859 5858 5857 5857 5856 5855 5854 5854 5853 5852 5852 5851 5850 5849 5848 5847 5847 5846 5846 5846 5845 5845 5845 5845 5845 5845 5845 5846 5846 5846 5846 5847 5847 5847 5847 5847 5847 5847 5847 5846 5846
5858 5856 5855 5855 5854 5853 5852 5851 5851 5850 5849 5849 5848 5847 5846 5845 5844 5843 5843 5842 5842 5841 5841 5841 5841 5841 5841 5841 5841 5842 5842 5842 5842 5843 5843 5843 5843 5843 5843 5843 5842 5842 5842
5854 5853 5852 5851 5850 5850 5849 5848 5847 5846 5845 5844 5844 5843 5842 5841 5840 5839 5838 5838 5837 5837 5836 5836 5835 5836 5836 5836 5836 5837 5837 5837 5838 5838 5838 5839 5839 5839 5839 5838 5838 5838 5837
5851 5849 5848 5848 5846 5846 5845 5844 5843 5842 5841 5840 5839 5838 5837 5836 5835 5835 5834 5833 5832 5831 5831 5830 5830 5830 5830 5831 5831 5832 5832 5832 5833 5833 5833 5834 5834 5834 5834 5833 5833 5833 5832
5848 5846 5845 5844 5843 5842 5841 5840 5839 5838 5837 5836 5835 5834 5833 5832 5831 5830 5828 5827 5826 5826 5825 5825 5824 5824 5824 5825 5825 5826 5826 5826 5827 5827 5827 5828 5828 5828 5828 5828 5828 5827 5827
5844 5843 5841 5840 5839 5838 5837 5836 5835 5833 5832 5831 5830 5829 5828 5827 5825 5824 5823 5822 5821 5820 5819 5819 5818 5818 5818 5819 5819 5820 5820 5820 5821 5821 5821 5822 5822 5822 5822 5822 5822 5822 5821
5841 5839 5838 5836 5835 5833 5832 5831 5830 5829 5828 5827 5825 5824 5823 5821 5820 5819 5817 5816 5814 5813 5813 5812 5812 5812 5812 5812 5813 5813 5813 5814 5814 5815 5815 5815 5815 5815 5815 5815 5815 5815 5815
5836 5835 5833 5832 5830 5829 5827 5826 5825 5823 5822 5821 5820 5819 5817 5816 5814 5812 5811 5809 5808 5807 5806 5805 5805 5805 5805 5805 5806 5806 5807 5807 5807 5808 5808 5808 5808 5808 5809 5809 5809 5809 5809
5831 5829 5828 5826 5825 5823 5822 5820 5819 5818 5816 5815 5814 5812 5811 5810 5808 5806 5804 5803 5801 5800 5799 5798 5798 5798 5798 5798 5799 5799 5799 5800 5800 5800 5800 5801 5801 5801 5802 5802 5802 5802 5802
5825 5823 5821 5820 5819 5817 5816 5814 5813 5811 5810 5809 5807 5806 5805 5803 5801 5799 5798 5796 5795 5793 5792 5791 5791 5791 5791 5791 5791 5791 5792 5792 5792 5793 5793 5794 5794 5794 5794 5795 5795 5795 5795
5819 5817 5815 5814 5812 5811 5809 5808 5806 5805 5804 5802 5801 5799 5798 5796 5795 5793 5791 5790 5788 5787 5786 5785 5784 5784 5784 5784 5784 5784 5784 5785 5785 5786 5786 5786 5786 5786 5786 5787 5787 5788 5788
5813 5811 5808 5807 5805 5804 5803 5801 5799 5798 5797 5795 5794 5792 5791 5789 5787 5786 5784 5782 5781 5780 5779 5778 5777 5777 5776 5777 5777 5777 5777 5777 5778 5778 5778 5778 5778 5778 5778 5779 5779 5780 5780
5806 5804 5802 5800 5798 5797 5796 5794 5792 5791 5789 5788 5786 5785 5783 5781 5780 5778 5776 5775 5773 5773 5772 5771 5770 5770 5769 5769 5769 5769 5769 5769 5770 5770 5770 5770 5770 5770 5770 5770 5771 5771 5771
5800 5797 5795 5793 5791 5790 5788 5787 5785 5783 5781 5780 5778 5777 5775 5773 5772 5770 5768 5767 5766 5765 5764 5763 5763 5762 5762 5761 5761 5761 5761 5761 5761 5761 5761 5761 5761 5761 5761 5762 5762 5762 5762
5793 5790 5788 5786 5784 5782 5781 5779 5777 5775 5773 5771 5770 5768 5766 5764 5763 5761 5760 5759 5757 5756 5755 5755 5754 5754 5753 5753 5753 5753 5753 5752 5752 5752 5752 5752 5752 5752 5752 5753 5753 5752 5752